(176485) = 2001 XR211 = 2006 UV108

Discovered at Socorro on 2001-12-11 by LINEAR.

Orbit

Orbit type: Main Belt

Note: WebGL enabled browser required.

epoch2024-03-31.0
epoch JD2460400.5
perihelion date2022-04-04.22182
perihelion JD2459673.72182
argument of perihelion (°)276.16121
ascending node (°)70.03056
inclination (°)9.60374
eccentricity0.1205182
perihelion distance (AU)2.7028813
Tisserand w.r.t. Jupiter3.2
ΔV w.r.t. Earth (km/sec)10.7
semimajor axis (AU)3.0732657
mean anomaly (°)132.95527
mean daily motion (°/day)0.18293790
aphelion distance (AU)3.444
period (years)5.39
P-vector [x]0.95800385
P-vector [y]-0.14863316
P-vector [z]-0.24522808
Q-vector [x]0.24008680
Q-vector [y]0.88337307
Q-vector [z]0.40250509
absolute magnitude15.41
phase slope0.15
uncertainty0
referenceMPEC 2024-C163
observations used511
oppositions18
arc length (days)8099
first opposition used2001
last opposition used2024
residual rms (arc-secs)0.69
perturbers coarse indicatorM-v
perturbers precise indicator003Ek
first observation date used2001-12-11.0
last observation date used2024-02-13.0
computer nameMPCLINUX
JD of orbit computation2456819.457894
perihelion JD uncertainty (days)1.6411E-04
argument of perihelion uncertainty (°)4.8060E-05
ascending node uncertainty (°)3.8897E-05
inclination uncertainty (°)7.2570E-06
eccentricity uncertainty 7.0851E-08
perihelion distance uncertainty (AU)2.2324E-07
Minimum Orbit Intersection Distances (in AU)
for orbit epoch: 2460400.5, reference: E2024-GB3
Mercury2.31224
Venus1.98126
Earth1.71791
Mars1.34403
Jupiter2.01096
Saturn5.83533
Uranus15.0453
Neptune26.8832

Observations

527 total observations over interval: 2001 12 11.31144 – 2024 02 13.276262
These data are available for download (format description).

Date (UT) J2000 RA J2000 Dec Magn Location Ref
2001 12 11.31144 05 48 37.18 +26 55 08.5 19.5   704 – Lincoln Laboratory ETS, New Mexico MPS 45385
2001 12 11.32741 05 48 36.27 +26 55 11.0 19.7   704 – Lincoln Laboratory ETS, New Mexico MPS 45385
2001 12 11.34245 05 48 35.42 +26 55 13.8 19.8   704 – Lincoln Laboratory ETS, New Mexico MPS 45385
2001 12 18.30228 05 41 52.51 +27 11 07.0 19.5   704 – Lincoln Laboratory ETS, New Mexico MPS 45385
2001 12 18.31751 05 41 51.56 +27 11 08.6 19.7   704 – Lincoln Laboratory ETS, New Mexico MPS 45385
2001 12 18.33273 05 41 50.68 +27 11 10.7 19.5   704 – Lincoln Laboratory ETS, New Mexico MPS 45385
2001 12 18.34797 05 41 49.77 +27 11 12.4 19.0   704 – Lincoln Laboratory ETS, New Mexico MPS 45385
2001 12 18.36320 05 41 48.82 +27 11 13.9 19.2   704 – Lincoln Laboratory ETS, New Mexico MPS 45385
2001 12 19.30345 05 40 54.32 +27 13 09.8 19.0   704 – Lincoln Laboratory ETS, New Mexico MPS 47006
2001 12 19.31874 05 40 53.37 +27 13 11.9 19.6   704 – Lincoln Laboratory ETS, New Mexico MPS 47006
2001 12 19.33387 05 40 52.54 +27 13 14.4 20.5   704 – Lincoln Laboratory ETS, New Mexico MPS 47006
2001 12 19.34913 05 40 51.52 +27 13 14.9 20.1   704 – Lincoln Laboratory ETS, New Mexico MPS 47006
2001 12 19.36477 05 40 50.63 +27 13 17.6 18.8   704 – Lincoln Laboratory ETS, New Mexico MPS 47006
2001 12 20.29513 05 39 56.79 +27 15 09.1 19.5   704 – Lincoln Laboratory ETS, New Mexico MPS 47006
2001 12 20.31026 05 39 55.92 +27 15 12.5 20.1   704 – Lincoln Laboratory ETS, New Mexico MPS 47006
2001 12 20.32548 05 39 55.02 +27 15 12.6 19.7   704 – Lincoln Laboratory ETS, New Mexico MPS 47006
2001 12 20.34052 05 39 54.03 +27 15 14.1 20.2   704 – Lincoln Laboratory ETS, New Mexico MPS 47006
2001 12 20.35614 05 39 53.11 +27 15 15.9 19.6   704 – Lincoln Laboratory ETS, New Mexico MPS 47006
2003 03 08.39186 10 41 11.17 +22 42 48.0 20.5   644 – Palomar Mountain/NEAT MPS 186841
2003 03 08.40253 10 41 10.65 +22 42 50.3 20.2   644 – Palomar Mountain/NEAT MPS 186841
2003 03 08.41323 10 41 10.15 +22 42 52.1 20.0   644 – Palomar Mountain/NEAT MPS 186841
2004 04 26.32480 14 44 48.69 -08 33 26.8 21.2 V 691 – Steward Observatory, Kitt Peak-Spacewatch MPS 186841
2004 04 26.35239 14 44 47.31 -08 33 23.2 21.2 V 691 – Steward Observatory, Kitt Peak-Spacewatch MPS 186841
2004 04 26.37989 14 44 45.94 -08 33 20.1 21.5 V 691 – Steward Observatory, Kitt Peak-Spacewatch MPS 186841
2005 02 14.37183 19 01 08.70 -25 29 54.0 20.8 R 809 – European Southern Observatory, La Silla MPS 186841
2005 02 14.37782 19 01 09.29 -25 29 54.3 20.9 R 809 – European Southern Observatory, La Silla MPS 186841
2005 07 29.66331 20 38 53.30 -31 06 37.3 19.4 V E12 – Siding Spring Survey MPS 186841
2005 07 29.67424 20 38 52.72 -31 06 40.0 18.8 V E12 – Siding Spring Survey MPS 186841
2005 07 29.68516 20 38 52.04 -31 06 44.1 18.7 V E12 – Siding Spring Survey MPS 186841
2005 07 29.69610 20 38 51.57 -31 06 46.0 19.2 V E12 – Siding Spring Survey MPS 186841
2005 08 12.60406 20 27 06.55 -31 59 35.5 19.3 V E12 – Siding Spring Survey MPS 186841
2005 08 12.61375 20 27 06.08 -31 59 37.3 19.3 V E12 – Siding Spring Survey MPS 186841
2005 08 12.62307 20 27 05.61 -31 59 38.2 18.9 V E12 – Siding Spring Survey MPS 186841
2005 08 12.63258 20 27 05.18 -31 59 39.5 19.6 V E12 – Siding Spring Survey MPS 186841
2006 10 03.42984 03 48 33.69 +13 44 49.5 19.4 V G96 – Mt. Lemmon Survey MPS 186564
2006 10 03.43659 03 48 33.62 +13 44 49.8 19.7 V G96 – Mt. Lemmon Survey MPS 186564
2006 10 03.44336 03 48 33.51 +13 44 49.7 19.5 V G96 – Mt. Lemmon Survey MPS 186564
2006 10 03.45009 03 48 33.40 +13 44 49.9 19.7 V G96 – Mt. Lemmon Survey MPS 186564
2006 10 18.45838 03 42 21.82 +13 43 16.6 20.0 V 691 – Steward Observatory, Kitt Peak-Spacewatch MPS 184332
2006 10 18.47577 03 42 21.19 +13 43 16.2 19.9 V 691 – Steward Observatory, Kitt Peak-Spacewatch MPS 184332
2006 10 18.49317 03 42 20.53 +13 43 15.5 19.8 V 691 – Steward Observatory, Kitt Peak-Spacewatch MPS 184332
2006 10 22.43808 03 39 50.63 +13 41 43.8 19.9 V 691 – Steward Observatory, Kitt Peak-Spacewatch MPS 184332
2006 10 22.45890 03 39 49.76 +13 41 43.2 19.7 V 691 – Steward Observatory, Kitt Peak-Spacewatch MPS 184332
2006 10 22.47629 03 39 49.02 +13 41 42.7 19.8 V 691 – Steward Observatory, Kitt Peak-Spacewatch MPS 184332
2006 11 09.37997 03 25 19.63 +13 32 55.7 18.9 R 644 – Palomar Mountain/NEAT MPS 190349
2006 11 09.40065 03 25 18.48 +13 32 55.1 19.2 R 644 – Palomar Mountain/NEAT MPS 190349
2006 11 09.42146 03 25 17.32 +13 32 54.3 19.2 R 644 – Palomar Mountain/NEAT MPS 190349
2006 11 11.36487 03 23 32.20 +13 32 04.8 18.6 V 703 – Catalina Sky Survey MPS 187173
2006 11 11.37271 03 23 31.70 +13 32 04.4 18.9 V 703 – Catalina Sky Survey MPS 187173
2006 11 11.38056 03 23 31.23 +13 32 04.9 18.4 V 703 – Catalina Sky Survey MPS 187173
2006 11 11.38841 03 23 30.84 +13 32 05.3 18.8 V 703 – Catalina Sky Survey MPS 187173
2006 11 14.24642 03 20 55.56 +13 31 01.4 19.3   704 – Lincoln Laboratory ETS, New Mexico MPS 186841
2006 11 14.25806 03 20 54.68 +13 31 01.2 20.0   704 – Lincoln Laboratory ETS, New Mexico MPS 186841
2006 11 14.26969 03 20 53.97 +13 31 01.6 19.6   704 – Lincoln Laboratory ETS, New Mexico MPS 186841
2006 11 14.28142 03 20 53.37 +13 31 00.4 19.6   704 – Lincoln Laboratory ETS, New Mexico MPS 186841
2006 11 16.27172 03 19 05.05 +13 30 25.6 18.8 V G96 – Mt. Lemmon Survey MPS 186841
2006 11 16.27851 03 19 04.69 +13 30 25.9 18.6 V G96 – Mt. Lemmon Survey MPS 186841
2006 11 16.28543 03 19 04.29 +13 30 25.4 18.6 V G96 – Mt. Lemmon Survey MPS 186841
2006 11 16.29225 03 19 03.90 +13 30 25.1 18.7 V G96 – Mt. Lemmon Survey MPS 186841
2006 11 20.24778 03 15 30.96 +13 29 44.9 19.6   704 – Lincoln Laboratory ETS, New Mexico MPS 188461
2006 11 20.26003 03 15 30.20 +13 29 42.5 19.7   704 – Lincoln Laboratory ETS, New Mexico MPS 188461
2006 11 20.27228 03 15 29.57 +13 29 44.2 19.8   704 – Lincoln Laboratory ETS, New Mexico MPS 188461
2006 11 20.28464 03 15 28.90 +13 29 42.4 19.5   704 – Lincoln Laboratory ETS, New Mexico MPS 188461
2006 11 20.29689 03 15 28.30 +13 29 43.6 19.8   704 – Lincoln Laboratory ETS, New Mexico MPS 188461
2006 11 28.25652 03 08 42.14 +13 30 35.8 19.4   704 – Lincoln Laboratory ETS, New Mexico MPS 190349
2006 11 28.26949 03 08 41.53 +13 30 36.3 19.9   704 – Lincoln Laboratory ETS, New Mexico MPS 190349
2006 11 28.28246 03 08 40.90 +13 30 35.9 20.1   704 – Lincoln Laboratory ETS, New Mexico MPS 190349
2006 11 28.29543 03 08 40.22 +13 30 35.2 20.0   704 – Lincoln Laboratory ETS, New Mexico MPS 190349
2006 11 28.30841 03 08 39.66 +13 30 35.6 20.4   704 – Lincoln Laboratory ETS, New Mexico MPS 190349
2006 12 16.24032 02 57 08.53 +13 48 31.4 19.8 V G96 – Mt. Lemmon Survey MPS 191922
2006 12 16.24479 02 57 08.38 +13 48 32.0 19.7 V G96 – Mt. Lemmon Survey MPS 191922
2006 12 16.24921 02 57 08.28 +13 48 32.4 19.6 V G96 – Mt. Lemmon Survey MPS 191922
2006 12 16.25374 02 57 08.06 +13 48 32.7 19.2 V G96 – Mt. Lemmon Survey MPS 191922
2007 01 10.19670 02 53 27.13 +14 57 32.7 20.2 V G96 – Mt. Lemmon Survey MPS 195454
2007 01 10.20181 02 53 27.16 +14 57 33.8 20.0 V G96 – Mt. Lemmon Survey MPS 195454
2007 01 10.20685 02 53 27.24 +14 57 34.9 20.1 V G96 – Mt. Lemmon Survey MPS 195454
2007 01 10.21188 02 53 27.27 +14 57 36.0 20.5 V G96 – Mt. Lemmon Survey MPS 195454
2007 01 15.28578 02 54 32.82 +15 17 34.4 20.5 r 568 – Maunakea MPS 268681
2007 01 15.33162 02 54 33.51 +15 17 45.5 20.4 r 568 – Maunakea MPS 268681
2007 01 15.37302 02 54 34.14 +15 17 55.4 20.7 r 568 – Maunakea MPS 268681
2007 01 24.14491 02 57 49.68 +15 56 20.6 20.5 V G96 – Mt. Lemmon Survey MPS 196982
2007 01 24.15156 02 57 49.86 +15 56 23.0 20.6 V G96 – Mt. Lemmon Survey MPS 196982
2007 01 24.15817 02 57 50.00 +15 56 24.6 20.6 V G96 – Mt. Lemmon Survey MPS 196982
2007 01 24.16475 02 57 50.18 +15 56 26.4 21.6 V G96 – Mt. Lemmon Survey MPS 196982
2007 02 06.16824 03 05 30.98 +17 00 39.3 20.8 V G96 – Mt. Lemmon Survey MPS 198641
2007 02 06.17772 03 05 31.34 +17 00 42.1 20.9 V G96 – Mt. Lemmon Survey MPS 198641
2007 02 06.18720 03 05 31.77 +17 00 45.3 20.7 V G96 – Mt. Lemmon Survey MPS 198641
2007 02 06.19659 03 05 32.13 +17 00 47.8 20.6 V G96 – Mt. Lemmon Survey MPS 198641
